Lid_Strength_Index
3 3 3 4 4 4 4 4 4 4 4 4 4 4 4 4 4 4 4 3 3 3 3 3 3 3 4 7 6 3 -2 -1 2 5 8 10 11 11 12 12 11 12 10 9 10 6 7
3 3 4 4 4 4 4 4 4 4 4 4 4 4 4 4 4 4 4 4 4 4 4 3 3 2 6 10 5 1 2 4 6 8 9 9 9 9 10 11 12 10 10 9 9 7 7
3 4 4 4 4 4 4 4 4 4 4 4 4 4 4 4 4 4 4 4 4 4 4 3 3 3 6 7 3 2 5 7 6 6 7 7 8 8 9 9 9 9 10 9 9 7 8
4 4 4 4 4 4 4 4 4 4 4 4 4 4 4 4 4 4 4 4 4 4 3 3 1 4 9 5 4 5 4 3 6 6 6 5 6 8 9 8 8 10 11 14 11 9 7
4 4 4 4 4 5 5 5 5 5 5 5 4 4 4 4 4 4 4 4 4 3 3 1 5 5 10 2 4 3 4 3 4 5 6 4 7 8 8 11 12 12 14 13 11 9 8
4 4 4 5 5 5 5 5 4 4 4 4 4 4 4 4 4 4 4 5 4 3 2 2 3 9 7 6 4 3 4 3 5 6 6 7 9 11 12 12 15 14 14 12 13 10 10
5 4 4 4 4 5 4 4 4 4 4 4 4 4 4 4 4 4 6 7 9 9 6 7 7 7 6 5 3 5 4 4 6 8 11 9 12 13 11 11 10 11 12 12 11 10 10
4 4 4 4 4 4 5 5 5 4 4 4 4 4 4 4 4 4 7 6 5 8 11 6 5 6 5 5 6 4 4 7 8 10 10 11 13 10 9 9 10 11 12 12 10 7 10
4 4 4 4 4 4 5 4 4 4 4 4 4 4 4 4 4 5 6 5 5 6 10 7 7 6 5 5 6 5 5 6 8 10 10 12 9 7 8 9 10 10 12 12 10 9 8
5 4 4 5 4 4 4 4 4 4 4 4 4 4 4 4 7 7 7 5 4 6 12 9 7 6 6 5 7 4 4 6 8 9 9 10 7 8 9 10 9 13 9 9 10 11 13
5 5 5 5 4 5 4 5 4 4 4 4 4 4 4 4 9 8 5 4 4 6 17 7 7 5 6 8 6 6 4 6 8 8 9 10 9 9 10 9 8 10 8 10 10 12 13
5 4 4 4 4 4 4 4 4 4 4 4 4 4 4 6 8 6 5 5 6 11 15 8 8 8 9 8 8 6 6 5 6 8 8 8 7 8 9 8 8 8 9 11 12 12 16
5 5 4 4 4 4 4 4 4 4 4 4 4 5 5 5 8 6 5 7 12 15 8 10 10 9 9 9 9 8 8 9 10 12 12 9 8 8 7 10 9 10 13 16 16 17 16
4 4 4 4 4 4 4 4 4 4 4 4 5 5 5 5 6 5 6 10 16 10 9 8 9 10 10 9 9 9 10 10 9 9 12 13 13 9 7 9 11 11 13 15 18 17 15
4 4 4 4 4 4 4 4 4 4 5 5 5 8 6 4 5 4 9 14 13 10 8 8 10 12 12 10 9 8 10 10 9 9 11 13 11 7 7 7 9 12 13 11 14 14 16
5 5 4 4 4 4 4 4 4 4 5 5 9 8 6 3 3 5 10 12 11 8 8 7 12 10 12 12 10 10 10 8 8 7 8 10 13 8 8 7 7 10 9 13 14 17 18
5 5 5 4 4 4 4 4 4 4 5 6 9 9 6 2 3 7 12 11 9 6 6 8 10 10 10 11 10 11 10 8 7 7 7 10 12 10 9 10 11 12 13 12 13 14 17
5 5 5 4 4 4 4 4 4 5 5 8 10 13 6 4 8 9 11 8 7 7 6 7 7 8 10 10 10 11 10 8 6 7 9 8 13 13 11 8 7 10 11 12 14 15 14
6 5 5 5 4 4 4 5 5 5 5 9 12 10 4 5 11 13 11 10 7 8 7 8 9 8 8 11 12 10 9 7 7 8 10 9 12 15 13 11 9 11 10 11 12 13 15
6 6 6 5 5 4 4 5 5 5 5 9 10 11 10 9 10 13 13 11 10 7 7 7 8 8 10 11 10 12 10 8 6 7 7 7 12 14 14 12 10 12 10 10 12 15 15
6 6 6 5 5 5 5 5 5 6 6 9 10 13 12 14 13 13 13 11 10 10 7 7 9 9 10 13 12 12 10 9 7 7 8 9 15 13 11 10 10 10 10 10 11 12 14
6 6 6 6 6 6 6 5 5 5 6 8 11 12 12 14 13 12 12 13 11 10 9 10 9 8 10 12 11 12 10 11 11 9 9 9 14 12 13 10 9 11 10 10 10 10 11
7 7 6 6 6 6 6 5 5 5 7 11 10 9 12 13 13 14 13 12 11 10 9 8 8 9 9 8 7 8 7 7 8 10 11 11 13 14 16 12 12 13 11 10 10 9 10
7 6 6 6 6 6 6 6 5 5 6 11 11 11 14 15 13 12 11 11 11 11 11 8 8 9 8 6 6 6 7 8 8 9 8 12 13 13 16 14 19 11 8 8 9 9 8
6 6 6 6 6 6 6 6 5 5 5 10 10 12 12 15 12 12 12 12 12 12 11 10 8 8 8 8 10 12 12 11 10 9 9 9 12 15 17 17 14 11 10 10 11 11 8
6 6 6 6 6 6 6 5 5 5 5 9 10 9 11 14 15 11 12 12 14 14 12 10 8 9 9 9 11 15 16 13 13 12 9 10 10 14 15 19 20 12 9 7 8 14 8
6 6 6 6 6 6 6 5 5 5 4 8 9 9 10 12 11 11 13 13 11 13 14 12 11 12 9 11 13 14 14 10 15 15 15 14 14 16 16 17 14 10 8 7 16 14 8
6 6 6 6 6 5 5 5 5 5 4 7 9 8 9 12 11 9 9 12 11 12 15 13 13 11 12 13 13 13 14 13 14 13 14 15 16 16 15 17 18 8 9 12 10 8 7
6 6 6 6 5 5 5 4 4 4 4 5 10 7 7 11 11 7 7 7 8 8 11 12 13 12 11 13 12 11 13 12 13 16 11 15 13 14 13 14 8 7 8 7 6 7 7